Location: *
(40.7873°S, 98.7174°E)
Time: 01:18:01
(UTC+00:00)

ARIANE 6 FM1 Upper Stage - Pass Details

Date: 19 December 2025
Orbit: 522 x 610 km, 62.0° (Epoch: 20 January)

Event Time Altitude Azimuth Distance (km) Brightness Sun altitude
Rises 18:49:25 0° 220° (SW) 2,904 6.7 -22.7°
Reaches altitude 10° 18:51:44 10° 222° (SW) 1,987 5.8 -22.5°
Enters shadow 18:56:05 65° 292° (WNW) 672 2.8 -22.2°
